SCP
0 0 0 0 0 0 0 0 0 0 0 0 0 0 1 1 2 2 2 2 2 2 3 3 3 3 3 3 3 3 2 2 2 2 2 2 1 1 1 1 1 1 1 1
0 0 0 0 0 0 0 0 0 0 0 0 0 0 1 1 1 2 2 2 2 2 3 4 4 3 3 3 3 3 2 2 2 2 2 2 2 1 1 1 1 1 1 1
0 0 0 0 0 0 0 0 0 0 0 0 0 0 1 1 1 2 2 1 1 2 3 3 4 4 4 4 3 3 2 2 2 2 2 2 2 1 1 1 1 1 1 1
0 0 0 0 0 0 0 0 0 0 0 0 0 0 0 1 1 1 1 1 1 2 2 3 3 3 4 4 3 2 2 2 2 2 2 2 1 1 1 1 1 1 1 1
0 0 0 0 0 0 0 0 0 0 0 0 0 0 0 1 1 1 1 1 1 1 2 2 2 2 3 3 2 2 2 2 2 2 2 1 1 1 1 1 1 1 2 2
0 0 0 0 0 0 0 0 0 0 0 0 0 0 0 0 1 1 1 1 1 1 1 1 1 2 2 2 2 2 2 2 1 1 1 1 1 1 1 1 1 1 2 2
0 0 0 0 0 0 0 0 0 0 0 0 0 0 0 0 1 1 1 1 1 1 1 1 1 1 1 1 1 1 2 2 1 1 1 1 1 1 1 1 1 2 2 2
0 0 0 0 0 0 0 0 0 0 0 0 0 0 0 1 1 1 1 1 1 1 1 1 1 2 1 1 1 1 2 2 1 1 1 1 1 1 2 2 3 3 2 2
0 0 0 0 0 0 0 0 0 0 0 0 0 0 0 1 1 1 1 1 1 1 1 1 1 2 1 1 1 1 1 1 1 1 1 1 1 2 3 3 4 4 4 4
0 0 0 0 0 0 0 0 0 0 0 0 0 0 0 1 1 1 1 1 1 2 2 1 1 1 1 1 1 1 2 1 1 1 1 1 2 2 3 3 4 4 5 5
0 0 0 0 0 0 0 0 0 0 0 0 0 0 0 0 1 1 1 1 1 1 2 1 1 1 2 2 2 2 2 1 1 1 1 1 1 2 2 3 3 3 3 4
0 0 0 0 0 0 0 0 0 0 0 0 0 0 0 1 1 1 1 1 1 1 2 2 1 1 2 2 2 2 1 1 1 1 1 1 1 1 2 2 2 2 2 2
0 0 0 0 0 0 0 0 0 0 0 0 0 0 1 1 1 1 1 1 1 2 2 2 2 1 1 1 1 1 1 1 1 2 2 2 2 1 1 1 1 1 2 2
0 0 0 0 0 0 0 0 0 0 0 0 0 0 1 1 1 1 2 2 2 3 3 2 2 2 2 1 1 1 1 1 2 2 3 3 2 2 1 1 1 1 2 2
0 0 0 0 0 0 0 0 0 0 0 0 0 1 1 1 1 1 2 2 3 3 3 3 2 2 2 2 1 1 2 2 2 3 3 3 3 2 2 2 2 2 3 3
0 0 0 0 0 0 0 0 0 0 0 0 1 1 1 1 1 2 2 3 4 4 3 3 3 2 2 2 2 1 2 2 2 2 2 2 2 2 2 2 2 3 3 3
1 1 0 0 0 0 1 1 1 1 1 1 1 1 1 2 2 2 2 3 4 4 3 3 3 2 2 2 1 1 1 1 1 2 2 2 1 1 1 2 2 2 2 3
1 1 0 0 0 0 1 1 1 1 1 1 1 1 1 2 2 2 2 3 3 3 3 3 3 2 2 2 1 1 1 1 1 1 1 1 1 1 1 1 2 2 2 2
1 1 0 0 0 0 1 1 1 1 1 1 1 1 2 2 2 2 2 2 3 4 4 3 2 2 2 1 1 1 1 1 1 1 2 2 2 2 2 2 2 2 2 2
1 1 1 0 0 0 1 1 1 1 1 1 1 2 2 2 2 3 3 3 3 4 4 3 2 2 2 2 2 1 1 1 2 2 2 2 2 2 2 2 2 2 2 2
1 1 1 0 0 1 1 1 1 1 2 2 2 3 3 3 3 3 4 4 4 3 3 3 3 2 2 2 2 2 2 2 2 2 3 3 3 2 2 2 2 2 2 2
1 1 1 1 1 1 1 1 2 2 3 3 3 4 4 4 4 4 4 4 3 3 3 3 3 3 3 3 2 2 2 2 2 3 3 3 3 3 3 3 3 3 2 2
1 1 1 1 1 1 1 2 3 4 4 5 4 4 4 4 3 3 3 3 4 4 4 4 4 4 3 3 3 3 3 3 4 4 3 3 3 3 3 3 3 2 2 1
2 2 2 2 2 2 2 3 3 4 5 5 4 4 3 2 2 2 2 3 4 5 5 5 5 4 4 3 3 3 3 4 4 5 4 3 3 3 2 2 1 1 1 1
2 2 2 2 2 2 3 4 4 4 5 4 4 3 2 2 2 2 3 4 5 5 5 4 4 4 3 3 3 3 3 4 5 4 3 2 2 1 1 0 0 0 0 1
2 2 2 2 2 3 3 5 5 4 4 4 3 2 2 2 2 3 3 4 5 5 4 3 3 3 3 3 3 4 5 5 5 4 3 2 1 1 0 0 0 0 0 0
Wind_Speed
11 12 14 13 13 9 7 8 8 5 3 7 7 6 3 4 5 5 6 7 8 8 8 9 10 10 11 12 12 12 12 12 10 7 7 7 7 6 6 6 7 7 7 7
10 16 15 9 9 10 11 11 9 5 1 6 7 8 3 4 5 5 6 7 8 8 9 10 11 11 11 12 12 12 12 12 11 8 6 5 5 5 5 5 6 7 8 8
17 5 9 11 12 13 13 12 9 6 5 7 8 9 5 4 5 5 6 6 8 9 11 11 11 12 12 12 12 11 12 12 11 10 7 6 4 4 5 6 6 7 8 8
15 9 8 13 14 14 12 9 8 8 9 5 4 8 3 3 5 6 6 6 7 9 10 11 11 12 12 12 11 11 11 11 11 11 10 10 8 7 7 6 6 7 8 8
11 11 13 14 13 13 9 4 6 8 9 9 7 9 3 4 4 4 5 5 7 8 9 10 11 11 10 11 11 10 11 10 11 10 10 9 8 7 6 6 7 7 7 8
9 7 10 12 11 11 7 6 6 8 9 10 6 8 5 0 1 2 5 5 7 8 9 9 9 9 9 10 10 10 11 11 11 11 10 10 9 8 8 8 8 8 6 7
12 12 10 9 11 11 12 11 9 10 9 6 3 7 3 3 2 0 3 6 8 8 9 9 10 10 9 10 10 11 11 11 11 11 11 10 10 10 9 9 8 7 6 7
13 13 15 13 15 11 15 15 9 6 5 4 6 6 1 3 2 2 4 7 8 9 9 9 10 10 10 10 10 11 11 11 11 11 11 10 10 8 8 8 7 7 6 7
10 8 10 12 14 14 14 14 13 9 7 6 4 3 3 4 4 5 7 8 9 9 9 9 10 9 9 10 10 11 11 10 11 11 10 10 10 9 8 8 8 7 6 6
7 7 9 9 10 12 11 10 8 10 8 8 5 5 2 6 5 7 8 8 9 9 9 9 9 9 9 9 9 9 10 9 9 9 9 8 9 9 8 7 8 7 7 7
11 9 9 11 13 15 12 11 10 10 8 7 5 3 4 3 5 7 8 8 9 9 9 9 8 8 9 9 9 9 8 8 8 8 8 8 8 8 8 7 8 7 6 7
13 9 8 10 6 6 14 14 13 10 8 8 7 3 6 4 5 6 7 8 8 8 9 9 9 8 8 8 8 8 8 8 8 8 8 8 8 8 8 7 7 6 6 7
11 8 9 10 10 8 11 12 12 11 8 8 9 4 7 6 5 6 7 7 7 8 9 9 8 8 8 7 7 7 7 7 7 7 7 7 7 8 7 6 6 6 6 6
8 9 12 11 10 13 13 12 13 13 10 9 9 4 7 6 6 6 6 7 8 8 9 9 8 8 7 7 7 7 7 6 6 7 7 7 7 7 6 6 6 5 5 6
8 10 11 9 5 8 11 13 14 14 11 9 7 6 4 4 5 6 6 7 8 9 9 8 8 8 8 7 7 6 6 6 6 6 6 6 6 6 5 5 5 5 5 5
6 7 9 9 8 10 10 11 12 13 11 10 8 4 3 5 5 6 6 7 8 8 8 8 8 8 8 7 7 7 6 6 6 6 6 6 6 6 6 5 5 5 5 5
7 7 9 10 9 10 13 12 11 11 9 9 9 3 5 5 5 5 5 6 6 7 7 7 7 7 7 7 7 7 7 7 7 6 6 6 6 6 6 6 6 6 6 6
5 7 7 8 9 14 4 2 6 7 6 4 1 3 3 4 5 5 4 5 5 6 5 5 5 6 6 6 7 7 7 7 7 7 6 7 7 7 7 7 7 7 6 7
6 7 8 9 12 11 5 5 6 7 6 4 3 4 5 6 7 6 4 4 4 4 4 4 4 6 5 6 7 7 7 7 7 7 6 7 7 8 8 8 8 7 8 8
7 7 9 10 13 12 6 7 3 5 7 4 4 5 6 6 5 5 5 4 4 4 4 4 5 6 6 6 7 7 7 7 7 7 7 7 7 8 9 9 9 8 9 9
12 10 12 12 12 6 5 5 6 9 3 5 3 3 4 2 4 6 5 4 4 4 4 5 5 5 5 5 6 7 7 6 7 8 8 9 8 9 9 10 9 9 10 10
10 10 11 11 12 7 5 5 4 3 5 4 3 2 2 4 5 5 5 5 5 5 5 6 6 6 5 6 7 8 7 7 8 9 10 10 9 9 9 10 10 10 11 11
4 3 3 3 0 6 3 3 4 2 2 2 2 3 4 4 4 5 5 5 5 5 5 5 7 7 6 6 7 9 8 9 10 10 10 10 10 9 9 10 10 9 8 8
3 0 2 2 4 4 4 3 3 3 3 2 2 2 3 4 5 5 5 5 6 6 6 6 8 8 8 7 8 9 9 10 11 11 10 10 10 10 9 7 7 7 7 7
2 3 3 3 4 4 4 4 4 4 4 3 3 3 3 5 5 5 5 5 5 5 6 7 8 9 9 9 9 9 9 11 12 12 11 11 10 10 10 10 9 8 8 6
2 2 3 1 4 2 4 3 3 4 4 4 3 3 3 4 5 6 5 5 6 6 7 8 9 10 10 10 10 9 9 10 12 12 11 9 9 9 10 11 12 18 14 17
Wind_Direction
193 216 220 219 227 260 273 268 264 269 313 292 280 286 268 206 213 198 190 186 186 183 173 170 170 172 171 174 172 173 177 175 173 172 175 173 178 183 182 186 185 190 197 189
196 225 229 230 228 237 246 252 255 248 269 288 286 281 257 214 216 212 198 191 188 176 170 169 170 170 175 176 176 178 179 176 177 176 178 175 173 185 182 186 183 195 199 196
216 222 215 214 216 226 234 245 258 276 288 247 272 257 207 191 194 194 199 196 191 182 175 173 174 177 179 180 184 184 181 179 180 173 173 168 165 180 182 189 190 198 200 200
231 217 197 209 218 225 233 236 254 263 268 257 270 285 218 191 202 194 192 192 188 180 175 174 177 179 181 184 184 180 177 179 178 177 182 181 184 192 193 189 187 190 196 197
213 212 208 216 219 222 238 225 241 255 261 268 242 270 277 194 227 181 177 187 180 175 175 174 178 181 180 181 177 174 175 178 179 183 183 189 198 199 190 188 185 192 189 195
226 201 220 225 224 221 211 205 221 240 247 248 246 268 279 109 356 134 156 164 170 167 167 169 169 172 177 177 173 173 175 178 180 183 188 196 199 197 191 191 186 193 187 193
213 211 209 215 201 193 204 214 216 216 220 235 174 254 285 44 27 27 157 156 162 162 164 164 166 170 175 175 172 175 177 179 182 186 190 193 197 197 198 196 192 197 192 191
203 207 201 206 214 194 204 220 239 248 240 202 178 243 73 84 96 137 148 147 155 160 161 164 166 167 170 175 175 177 180 182 184 187 189 191 195 200 200 198 197 201 206 198
206 202 179 203 213 220 206 224 243 261 268 266 218 208 175 161 157 151 146 149 156 158 158 164 164 165 170 176 179 178 179 183 186 187 186 190 197 205 202 195 203 205 206 197
224 205 171 176 194 214 231 221 219 236 241 245 224 224 200 165 160 152 154 155 155 156 161 162 164 165 167 174 176 177 179 183 186 187 191 190 195 199 197 199 199 202 203 203
227 222 172 177 200 190 197 210 222 229 248 260 239 172 99 147 147 154 154 155 156 162 162 159 160 161 164 169 171 175 177 183 186 191 195 193 191 191 191 195 198 201 203 199
214 229 209 192 183 218 206 211 212 222 221 244 271 119 104 128 135 150 148 147 152 158 159 159 157 158 161 166 169 171 176 184 187 188 192 193 188 188 190 192 194 196 197 198
187 211 206 192 186 192 211 216 219 231 234 235 245 150 125 138 142 151 150 149 152 158 157 157 157 160 162 165 168 170 177 182 182 181 186 184 185 186 186 186 187 191 190 193
202 218 230 223 200 186 197 203 210 221 226 227 239 207 158 164 159 153 152 156 156 157 157 157 158 162 163 164 166 169 172 173 174 176 180 181 187 186 181 181 182 184 182 181
216 219 227 249 233 207 208 203 204 218 238 244 228 226 182 165 161 155 154 154 157 157 159 159 158 159 163 163 165 166 165 165 166 169 169 169 172 166 166 165 167 167 163 163
219 232 215 221 220 218 218 211 209 216 228 239 240 217 105 123 142 147 153 156 159 160 160 161 160 159 163 166 168 163 163 163 162 160 155 151 150 147 148 146 144 145 143 140
201 211 217 217 204 208 216 214 214 213 224 240 239 184 132 137 133 140 149 155 154 152 152 158 161 159 161 166 167 163 162 159 156 155 150 142 138 136 132 134 129 128 126 122
219 222 227 220 200 224 188 161 227 221 216 229 202 127 132 120 121 122 128 139 137 137 144 151 157 152 156 160 159 156 152 155 156 153 146 140 135 131 127 123 117 113 108 104
220 225 232 227 222 221 168 172 198 208 203 202 184 147 137 132 140 125 105 110 120 129 138 142 144 142 143 152 154 152 150 150 148 142 138 136 133 130 126 121 117 112 108 101
191 222 236 228 238 231 184 140 179 223 204 157 165 158 155 177 202 123 109 98 101 109 113 122 127 132 137 144 149 150 149 147 142 138 134 128 126 124 121 117 112 108 104 100
193 205 226 228 233 231 96 134 188 222 165 122 151 161 177 178 40 91 107 98 96 98 103 111 113 115 119 130 136 136 132 128 122 120 118 114 114 116 115 111 109 108 105 101
212 210 215 228 232 211 108 175 212 56 78 114 127 135 119 99 103 113 110 110 110 109 110 114 111 104 106 120 128 123 117 116 115 114 111 109 109 109 110 111 110 111 111 107
239 292 248 250 194 74 91 69 55 55 92 101 109 108 129 135 129 124 120 113 110 110 110 112 112 104 98 107 120 117 113 116 115 110 107 106 103 100 104 110 114 113 112 111
149 271 222 169 125 113 101 85 73 68 74 72 99 132 141 141 141 137 128 118 115 117 117 114 109 103 95 93 98 105 115 119 116 111 108 105 102 99 94 92 97 103 107 111
131 197 201 182 133 134 113 79 76 79 79 80 92 112 134 144 142 135 127 122 119 121 121 116 112 108 103 99 97 102 112 118 115 112 109 106 101 98 89 77 63 75 67 70
207 237 248 167 135 145 112 89 82 82 78 79 89 98 114 132 134 131 124 120 119 115 112 108 108 109 108 105 102 103 109 115 117 114 111 109 109 106 104 100 81 57 65 62